Date String (YYYY-MM-DD hh:mm:ss) UTC,Instrument flags,Ambient pressure (hPa),Sample flow (lpm),Bypass flow (lpm),Sample temperature (°C),Ambient temperature (°C),ASC tube jacket temperature (°C),LED temperature (°C),Box temperature (°C),Sample RH (%),Span deviation,Mass concentration (μg/m³),Mass concentration (μg/m³),Mass concentration (μg/m³)
DateTimeUTC,F1_M11,P_M11,Q1_M11,Q2_M11,T1_M11,T2_M11,T3_M11,T4_M11,T5_M11,U1_M11,ZSPAN_M11,X2_M11,X0_M11,X1_M11
2022-08-06 00:00:00,,0824.2,5.00,0.00,29.3,27.2,00.0,38.0,31.1,24.5,0000.0,0003.45,0007.94,0003.01
2022-08-06 00:01:00,,0824.2,4.99,0.00,29.2,27.1,00.0,37.9,31.1,24.4,0000.0,0003.45,0007.81,0003.02
2022-08-06 00:02:00,,0824.2,5.01,0.00,29.2,27.2,00.0,37.9,31.0,24.2,0000.0,0003.58,0008.29,0003.04
2022-08-06 00:03:00,,0824.2,4.99,0.00,29.2,27.3,00.0,37.9,31.0,24.5,0000.0,0004.04,0010.76,0003.11
2022-08-06 00:04:00,,0824.2,5.00,0.00,29.2,27.5,00.0,37.9,31.0,24.8,0000.0,0004.20,0012.96,0003.12
2022-08-06 00:05:00,,0824.2,5.00,0.00,29.2,27.7,00.0,37.9,31.1,24.7,0000.0,0004.23,0013.79,0003.12
2022-08-06 00:06:00,,0824.2,4.99,0.00,29.2,27.9,00.0,38.0,31.2,25.1,0000.0,0004.25,0013.92,0003.11
2022-08-06 00:07:00,,0824.2,5.01,0.00,29.3,28.1,00.0,38.0,31.3,24.6,0000.0,0004.24,0013.90,0003.09
2022-08-06 00:08:00,,0824.3,5.01,0.00,29.3,28.2,00.0,38.0,31.3,24.4,0000.0,0004.25,0013.66,0003.12
2022-08-06 00:09:00,,0824.2,5.00,0.00,29.4,28.1,00.0,38.0,31.3,24.2,0000.0,0004.24,0013.17,0003.13
2022-08-06 00:10:00,,0824.2,4.99,0.00,29.3,27.5,00.0,38.0,31.2,24.4,0000.0,0004.27,0012.86,0003.15
2022-08-06 00:11:00,,0824.2,5.00,0.00,29.3,27.1,00.0,38.0,31.1,24.9,0000.0,0004.28,0012.74,0003.16
2022-08-06 00:12:00,,0824.2,4.99,0.00,29.2,27.1,00.0,37.9,31.1,24.3,0000.0,0004.33,0012.71,0003.17
2022-08-06 00:13:00,,0824.2,5.00,0.00,29.2,27.2,00.0,37.9,31.0,24.5,0000.0,0004.34,0012.70,0003.19
2022-08-06 00:14:00,,0824.2,5.00,0.00,29.2,27.4,00.0,37.9,31.0,24.9,0000.0,0004.02,0011.11,0003.18
2022-08-06 00:15:00,,0824.3,5.01,0.00,29.2,27.6,00.0,37.9,31.1,25.2,0000.0,0003.68,0007.49,0003.17
2022-08-06 00:16:00,,0824.2,5.00,0.00,29.2,27.8,00.0,37.9,31.2,25.6,0000.0,0003.70,0006.32,0003.19
2022-08-06 00:17:00,,0824.2,4.99,0.00,29.3,27.9,00.0,38.0,31.2,26.0,0000.0,0003.71,0006.31,0003.21
2022-08-06 00:18:00,,0824.4,5.01,0.00,29.3,28.1,00.0,38.0,31.3,26.0,0000.0,0003.74,0006.46,0003.24
2022-08-06 00:19:00,,0824.3,4.99,0.00,29.3,28.2,00.0,38.0,31.3,25.9,0000.0,0003.78,0006.61,0003.24
2022-08-06 00:20:00,,0824.3,5.01,0.00,29.4,27.9,00.0,38.0,31.2,25.9,0000.0,0003.78,0006.67,0003.26
2022-08-06 00:21:00,,0824.3,4.99,0.00,29.3,27.2,00.0,38.0,31.0,28.0,0000.0,0003.77,0006.87,0003.26
2022-08-06 00:22:00,,0824.3,4.99,0.00,29.2,27.0,00.0,38.0,31.0,28.8,0000.0,0003.80,0006.89,0003.26
2022-08-06 00:23:00,,0824.3,5.01,0.00,29.2,27.0,00.0,37.9,30.9,28.8,0000.0,0003.80,0006.98,0003.25
2022-08-06 00:24:00,,0824.4,5.01,0.00,29.1,27.2,00.0,37.9,30.9,28.1,0000.0,0003.81,0007.65,0003.25
2022-08-06 00:25:00,,0824.4,4.99,0.00,29.1,27.4,00.0,37.9,31.0,28.1,0000.0,0003.81,0008.21,0003.25
2022-08-06 00:26:00,,0824.4,5.01,0.00,29.2,27.6,00.0,37.9,31.1,28.5,0000.0,0003.88,0008.32,0003.29
2022-08-06 00:27:00,,0824.6,4.99,0.00,29.2,27.8,00.0,38.0,31.1,28.4,0000.0,0003.93,0008.32,0003.32
2022-08-06 00:28:00,,0824.6,4.99,0.00,29.2,27.9,00.0,38.0,31.2,28.3,0000.0,0003.94,0008.89,0003.34
2022-08-06 00:29:00,,0824.7,5.00,0.00,29.3,28.1,00.0,38.0,31.3,28.6,0000.0,0003.94,0009.17,0003.35
2022-08-06 00:30:00,,0824.7,5.01,0.00,29.3,28.3,00.0,38.0,31.4,29.8,0000.0,0003.93,0010.40,0003.35
2022-08-06 00:31:00,,0824.9,5.01,0.00,29.4,28.0,00.0,38.0,31.3,29.5,0000.0,0003.93,0010.48,0003.33
2022-08-06 00:32:00,,0824.9,4.99,0.00,29.3,27.4,00.0,38.0,31.2,27.7,0000.0,0003.90,0010.49,0003.30
2022-08-06 00:33:00,,0824.8,5.00,0.00,29.3,27.1,00.0,38.0,31.1,27.9,0000.0,0003.88,0010.54,0003.28
2022-08-06 00:34:00,,0824.9,5.00,0.00,29.2,27.1,00.0,37.9,31.1,28.6,0000.0,0003.88,0010.43,0003.27
2022-08-06 00:35:00,,0824.9,5.01,0.00,29.2,27.2,00.0,37.9,31.0,29.2,0000.0,0003.87,0010.26,0003.26
2022-08-06 00:36:00,,0824.9,4.99,0.00,29.2,27.4,00.0,37.9,31.0,28.6,0000.0,0003.85,0010.51,0003.24
2022-08-06 00:37:00,,0824.9,5.00,0.00,29.2,27.5,00.0,37.9,31.1,28.0,0000.0,0003.80,0010.48,0003.20
2022-08-06 00:38:00,,0824.9,5.00,0.00,29.2,27.7,00.0,38.0,31.1,27.9,0000.0,0003.78,0010.53,0003.19
2022-08-06 00:39:00,,0824.9,4.99,0.00,29.3,27.9,00.0,38.0,31.2,27.9,0000.0,0003.78,0009.93,0003.19
2022-08-06 00:40:00,,0824.9,5.00,0.00,29.3,28.1,00.0,38.0,31.3,27.9,0000.0,0003.82,0009.81,0003.22
2022-08-06 00:41:00,,0824.9,5.01,0.00,29.3,28.2,00.0,38.0,31.3,28.0,0000.0,0003.90,0009.50,0003.28
2022-08-06 00:42:00,,0824.9,4.99,0.00,29.4,28.3,00.0,38.0,31.4,27.9,0000.0,0003.95,0009.67,0003.35
2022-08-06 00:43:00,,0824.9,5.00,0.00,29.4,28.0,00.0,38.0,31.3,27.9,0000.0,0004.05,0009.87,0003.42
2022-08-06 00:44:00,,0824.9,4.99,0.00,29.3,27.3,00.0,38.0,31.1,28.0,0000.0,0004.13,0009.84,0003.50
2022-08-06 00:45:00,,0824.9,5.01,0.00,29.3,27.1,00.0,38.0,31.1,28.3,0000.0,0004.25,0010.38,0003.59
2022-08-06 00:46:00,,0824.9,4.99,0.00,29.2,27.1,00.0,38.0,31.0,28.7,0000.0,0004.33,0010.59,0003.68
2022-08-06 00:47:00,,0824.9,5.00,0.00,29.2,27.3,00.0,38.0,30.9,29.0,0000.0,0004.44,0009.77,0003.77
2022-08-06 00:48:00,,0824.9,4.99,0.00,29.2,27.4,00.0,38.0,31.0,29.2,0000.0,0004.54,0009.92,0003.85
2022-08-06 00:49:00,,0825.0,5.00,0.00,29.2,27.6,00.0,38.0,31.1,29.3,0000.0,0004.58,0010.12,0003.90
2022-08-06 00:50:00,,0825.1,5.02,0.00,29.2,27.8,00.0,38.0,31.2,29.4,0000.0,0004.67,0010.96,0003.96
2022-08-06 00:51:00,,0825.1,4.99,0.00,29.3,28.0,00.0,38.0,31.3,29.3,0000.0,0004.74,0011.57,0004.01
2022-08-06 00:52:00,,0825.1,5.00,0.00,29.3,28.1,00.0,38.0,31.3,29.2,0000.0,0004.78,0011.66,0004.04
2022-08-06 00:53:00,,0825.1,5.01,0.00,29.4,28.3,00.0,38.0,31.4,29.0,0000.0,0004.87,0012.44,0004.08
2022-08-06 00:54:00,,0825.1,5.00,0.00,29.4,28.0,00.0,38.0,31.3,29.1,0000.0,0004.93,0012.43,0004.13
2022-08-06 00:55:00,,0825.1,5.01,0.00,29.3,27.3,00.0,38.0,31.2,29.3,0000.0,0005.01,0012.65,0004.17
2022-08-06 00:56:00,,0825.1,4.99,0.00,29.3,27.0,00.0,38.0,31.1,29.5,0000.0,0005.08,0012.56,0004.22
2022-08-06 00:57:00,,0825.2,5.00,0.00,29.2,27.0,00.0,38.0,31.0,29.6,0000.0,0005.13,0012.76,0004.25
2022-08-06 00:58:00,,0825.1,5.00,0.00,29.2,27.2,00.0,38.0,30.9,29.8,0000.0,0005.14,0013.44,0004.28
2022-08-06 00:59:00,,0825.1,5.00,0.00,29.2,27.3,00.0,37.9,31.0,30.0,0000.0,0005.18,0014.78,0004.29
